Hourly Weather Agullik

Today, 8 July, Wednesday

Time Temperature Precipitation Wind Pressure Humidity
00:00 +28°C° 0 mm 2 mps 711 mmHg 20%
01:00 +27°C° 0 mm 2 mps 711 mmHg 21%
02:00 +26°C° 0 mm 2 mps 711 mmHg 22%
03:00 +26°C° 0 mm 2 mps 711 mmHg 23%
04:00 +25°C° 0 mm 2 mps 711 mmHg 24%
05:00 +25°C° 0 mm 2 mps 711 mmHg 23%
06:00 +28°C° 0 mm 2 mps 711 mmHg 21%
07:00 +30°C° 0 mm 1 mps 711 mmHg 18%
08:00 +33°C° 0 mm 1 mps 711 mmHg 16%
09:00 +35°C° 0 mm 1 mps 711 mmHg 14%
10:00 +37°C° 0 mm 1 mps 711 mmHg 12%
11:00 +40°C° 0 mm 1 mps 711 mmHg 10%
12:00 +41°C° 0 mm 2 mps 711 mmHg 10%
13:00 +42°C° 0 mm 2 mps 711 mmHg 9%
14:00 +44°C° 0 mm 3 mps 711 mmHg 8%
15:00 +43°C° 0 mm 5 mps 711 mmHg 9%
16:00 +42°C° 0 mm 6 mps 712 mmHg 10%
17:00 +43°C° 0 mm 8 mps 712 mmHg 11%
18:00 +40°C° 0 mm 6 mps 712 mmHg 14%
19:00 +37°C° 0 mm 5 mps 713 mmHg 17%
20:00 +35°C° 0 mm 3 mps 713 mmHg 20%
21:00 +34°C° 0 mm 2 mps 713 mmHg 22%
22:00 +32°C° 0 mm 2 mps 713 mmHg 23%
23:00 +31°C° 0 mm 1 mps 713 mmHg 25%

Tomorrow, 9 July, Thursday

Time Temperature Precipitation Wind Pressure Humidity
00:00 +30°C° 0 mm 2 mps 712 mmHg 26%
01:00 +30°C° 0 mm 2 mps 712 mmHg 27%
02:00 +29°C° 0 mm 2 mps 712 mmHg 28%
03:00 +28°C° 0 mm 2 mps 712 mmHg 29%
04:00 +27°C° 0 mm 2 mps 712 mmHg 30%
05:00 +27°C° 0 mm 2 mps 712 mmHg 31%
06:00 +29°C° 0 mm 2 mps 712 mmHg 29%
07:00 +31°C° 0 mm 2 mps 712 mmHg 26%
08:00 +34°C° 0 mm 2 mps 712 mmHg 23%
09:00 +36°C° 0 mm 2 mps 711 mmHg 20%
10:00 +38°C° 0 mm 2 mps 711 mmHg 17%
11:00 +40°C° 0 mm 2 mps 711 mmHg 15%
12:00 +41°C° 0 mm 2 mps 711 mmHg 14%
13:00 +42°C° 0 mm 3 mps 710 mmHg 13%
14:00 +43°C° 0 mm 3 mps 710 mmHg 11%
15:00 +43°C° 0 mm 4 mps 710 mmHg 11%
16:00 +43°C° 0 mm 5 mps 710 mmHg 11%
17:00 +43°C° 0 mm 5 mps 710 mmHg 11%
18:00 +41°C° 0 mm 5 mps 710 mmHg 15%
19:00 +37°C° 0 mm 5 mps 710 mmHg 18%
20:00 +35°C° 0 mm 5 mps 710 mmHg 22%
21:00 +33°C° 0.1 mm 5 mps 710 mmHg 26%
22:00 +32°C° 0.1 mm 4 mps 711 mmHg 30%
23:00 +29°C° 0.1 mm 4 mps 711 mmHg 34%

Day after tomorrow, 10 July, Friday

Time Temperature Precipitation Wind Pressure Humidity
00:00 +28°C° 0.1 mm 4 mps 711 mmHg 37%
01:00 +27°C° 0.1 mm 3 mps 710 mmHg 40%
02:00 +27°C° 0.1 mm 3 mps 710 mmHg 43%
03:00 +26°C° 0.1 mm 3 mps 710 mmHg 44%
04:00 +25°C° 0.1 mm 3 mps 710 mmHg 46%
05:00 +25°C° 0.1 mm 3 mps 710 mmHg 47%
06:00 +27°C° 0 mm 2 mps 710 mmHg 41%
07:00 +29°C° 0 mm 2 mps 710 mmHg 35%
08:00 +32°C° 0 mm 2 mps 710 mmHg 29%
09:00 +35°C° 0 mm 2 mps 710 mmHg 25%
10:00 +37°C° 0 mm 3 mps 710 mmHg 21%
11:00 +39°C° 0 mm 3 mps 710 mmHg 18%
12:00 +40°C° 0 mm 3 mps 710 mmHg 16%
13:00 +42°C° 0 mm 4 mps 710 mmHg 13%
14:00 +43°C° 0 mm 4 mps 710 mmHg 11%
15:00 +42°C° 0 mm 5 mps 710 mmHg 12%
16:00 +42°C° 0 mm 6 mps 710 mmHg 12%
17:00 +43°C° 0 mm 7 mps 710 mmHg 13%
18:00 +39°C° 0 mm 6 mps 710 mmHg 17%
19:00 +36°C° 0 mm 6 mps 710 mmHg 22%
20:00 +33°C° 0 mm 6 mps 711 mmHg 26%
21:00 +32°C° 0 mm 5 mps 711 mmHg 30%
22:00 +30°C° 0 mm 4 mps 711 mmHg 34%
23:00 +28°C° 0 mm 4 mps 711 mmHg 38%

11 July, Saturday

Time Temperature Precipitation Wind Pressure Humidity
00:00 +28°C° 0 mm 3 mps 711 mmHg 39%
01:00 +28°C° 0 mm 3 mps 711 mmHg 39%
02:00 +28°C° 0 mm 3 mps 711 mmHg 40%
03:00 +27°C° 0 mm 3 mps 711 mmHg 41%
04:00 +27°C° 0 mm 3 mps 711 mmHg 42%
05:00 +27°C° 0 mm 3 mps 711 mmHg 43%
06:00 +28°C° 0 mm 3 mps 711 mmHg 40%
07:00 +29°C° 0 mm 3 mps 711 mmHg 37%
08:00 +30°C° 0 mm 3 mps 711 mmHg 35%
09:00 +32°C° 0 mm 2 mps 711 mmHg 30%
10:00 +35°C° 0 mm 2 mps 711 mmHg 25%
11:00 +36°C° 0 mm 1 mps 711 mmHg 20%
12:00 +38°C° 0 mm 2 mps 710 mmHg 19%
13:00 +38°C° 0 mm 2 mps 710 mmHg 17%
14:00 +39°C° 0 mm 2 mps 710 mmHg 16%
15:00 +39°C° 0 mm 2 mps 710 mmHg 15%
16:00 +40°C° 0 mm 2 mps 710 mmHg 15%
17:00 +40°C° 0 mm 2 mps 710 mmHg 14%
18:00 +38°C° 0 mm 2 mps 710 mmHg 17%
19:00 +36°C° 0 mm 2 mps 710 mmHg 19%
20:00 +34°C° 0 mm 2 mps 710 mmHg 21%
21:00 +31°C° 0 mm 2 mps 710 mmHg 27%
22:00 +30°C° 0 mm 2 mps 710 mmHg 33%
23:00 +28°C° 0 mm 2 mps 710 mmHg 39%

12 July, Sunday

Time Temperature Precipitation Wind Pressure Humidity
00:00 +27°C° 0 mm 2 mps 710 mmHg 39%
01:00 +27°C° 0 mm 2 mps 710 mmHg 40%
02:00 +26°C° 0 mm 1 mps 709 mmHg 41%
03:00 +26°C° 0 mm 1 mps 709 mmHg 40%
04:00 +26°C° 0 mm 2 mps 709 mmHg 40%
05:00 +25°C° 0 mm 2 mps 709 mmHg 39%
06:00 +28°C° 0 mm 1 mps 709 mmHg 35%
07:00 +30°C° 0 mm 1 mps 709 mmHg 31%
08:00 +32°C° 0 mm 1 mps 709 mmHg 26%
09:00 +35°C° 0 mm 2 mps 708 mmHg 24%
10:00 +36°C° 0 mm 2 mps 708 mmHg 22%
11:00 +38°C° 0 mm 3 mps 708 mmHg 20%
12:00 +39°C° 0 mm 3 mps 708 mmHg 19%
13:00 +40°C° 0 mm 2 mps 708 mmHg 17%
14:00 +41°C° 0 mm 2 mps 708 mmHg 15%
15:00 +42°C° 0 mm 3 mps 708 mmHg 15%
16:00 +42°C° 0 mm 5 mps 708 mmHg 15%
17:00 +41°C° 0 mm 6 mps 708 mmHg 15%
18:00 +39°C° 0 mm 6 mps 708 mmHg 19%
19:00 +36°C° 0 mm 6 mps 709 mmHg 23%
20:00 +34°C° 0 mm 6 mps 709 mmHg 27%
21:00 +33°C° 0 mm 6 mps 709 mmHg 30%
22:00 +32°C° 0 mm 7 mps 709 mmHg 33%
23:00 +30°C° 0 mm 7 mps 710 mmHg 36%

13 July, Monday

Time Temperature Precipitation Wind Pressure Humidity
00:00 +30°C° 0 mm 7 mps 710 mmHg 37%
01:00 +29°C° 0 mm 7 mps 709 mmHg 38%
02:00 +29°C° 0 mm 7 mps 709 mmHg 39%
03:00 +28°C° 0.1 mm 6 mps 709 mmHg 45%
04:00 +26°C° 0.1 mm 5 mps 709 mmHg 51%
05:00 +25°C° 0.1 mm 4 mps 709 mmHg 57%
06:00 +27°C° 0 mm 4 mps 710 mmHg 52%
07:00 +28°C° 0 mm 3 mps 710 mmHg 47%
08:00 +30°C° 0 mm 3 mps 710 mmHg 43%
09:00 +31°C° 0 mm 3 mps 710 mmHg 38%
10:00 +34°C° 0 mm 3 mps 710 mmHg 33%
11:00 +36°C° 0 mm 3 mps 710 mmHg 28%
12:00 +37°C° 0 mm 3 mps 710 mmHg 26%
13:00 +38°C° 0 mm 3 mps 710 mmHg 23%
14:00 +39°C° 0 mm 3 mps 710 mmHg 20%
15:00 +40°C° 0 mm 2 mps 710 mmHg 19%
16:00 +40°C° 0 mm 2 mps 710 mmHg 18%
17:00 +40°C° 0 mm 2 mps 709 mmHg 17%
18:00 +37°C° 0.2 mm 2 mps 710 mmHg 21%
19:00 +35°C° 0.2 mm 2 mps 710 mmHg 25%
20:00 +32°C° 0.2 mm 2 mps 710 mmHg 30%
21:00 +31°C° 0.1 mm 2 mps 710 mmHg 33%
22:00 +30°C° 0.1 mm 2 mps 710 mmHg 37%
23:00 +28°C° 0.1 mm 1 mps 710 mmHg 41%
Show more